QPF
0.00 0.01 0.03 0.04 0.12 0.15 0.08 0.03 0.02 0.02 0.01 0.01 0.01 0.02 0.03 0.05 0.12 0.14 0.15 0.13 0.09 0.09 0.07 0.08 0.09 0.07 0.07 0.07 0.06 0.06 0.07 0.06 0.05 0.06 0.06 0.06 0.07 0.10 0.10 0.11 0.12 0.14 0.17 0.14 0.14 0.14 0.15 0.10 0.11
0.01 0.02 0.03 0.06 0.15 0.09 0.05 0.03 0.02 0.01 0.00 0.01 0.01 0.02 0.03 0.05 0.07 0.09 0.13 0.14 0.10 0.10 0.11 0.07 0.07 0.07 0.06 0.05 0.04 0.04 0.04 0.05 0.05 0.07 0.07 0.06 0.06 0.08 0.09 0.08 0.10 0.13 0.13 0.10 0.12 0.11 0.12 0.10 0.12
0.00 0.01 0.04 0.09 0.08 0.06 0.03 0.02 0.01 0.00 0.00 0.00 0.01 0.01 0.02 0.04 0.05 0.08 0.11 0.08 0.09 0.12 0.11 0.08 0.05 0.05 0.03 0.02 0.02 0.03 0.05 0.05 0.05 0.06 0.06 0.06 0.06 0.05 0.07 0.09 0.11 0.11 0.09 0.07 0.08 0.10 0.10 0.09 0.09
0.01 0.03 0.06 0.05 0.04 0.01 0.01 0.01 0.00 0.00 0.00 0.00 0.01 0.01 0.02 0.03 0.04 0.05 0.07 0.06 0.07 0.08 0.09 0.07 0.05 0.05 0.04 0.04 0.04 0.05 0.05 0.04 0.04 0.06 0.06 0.04 0.05 0.04 0.06 0.09 0.10 0.09 0.07 0.06 0.07 0.08 0.07 0.04 0.04
0.02 0.06 0.08 0.04 0.02 0.01 0.00 0.00 0.00 0.00 0.00 0.01 0.01 0.02 0.05 0.05 0.04 0.04 0.05 0.04 0.04 0.06 0.06 0.04 0.04 0.04 0.04 0.04 0.04 0.04 0.03 0.03 0.04 0.05 0.05 0.05 0.05 0.04 0.06 0.08 0.09 0.07 0.07 0.07 0.07 0.08 0.05 0.03 0.03
0.13 0.09 0.05 0.03 0.01 0.01 0.00 0.01 0.01 0.00 0.01 0.01 0.02 0.03 0.06 0.07 0.05 0.03 0.03 0.03 0.02 0.04 0.04 0.02 0.01 0.01 0.04 0.05 0.04 0.04 0.04 0.04 0.04 0.04 0.04 0.05 0.06 0.06 0.07 0.08 0.07 0.06 0.07 0.08 0.09 0.07 0.04 0.02 0.03
0.16 0.11 0.05 0.03 0.02 0.01 0.00 0.00 0.01 0.00 0.01 0.01 0.01 0.02 0.05 0.07 0.05 0.02 0.02 0.02 0.01 0.02 0.02 0.02 0.01 0.01 0.05 0.04 0.03 0.04 0.04 0.05 0.05 0.07 0.06 0.05 0.05 0.06 0.09 0.09 0.06 0.06 0.07 0.09 0.09 0.06 0.03 0.02 0.02
0.06 0.05 0.03 0.01 0.02 0.02 0.00 0.00 0.00 0.00 0.01 0.02 0.04 0.03 0.03 0.06 0.04 0.02 0.01 0.01 0.01 0.01 0.01 0.02 0.03 0.04 0.04 0.03 0.03 0.04 0.05 0.05 0.06 0.09 0.08 0.05 0.07 0.09 0.10 0.09 0.06 0.07 0.10 0.12 0.09 0.05 0.03 0.03 0.02
0.03 0.05 0.03 0.01 0.01 0.01 0.00 0.00 0.00 0.01 0.02 0.03 0.03 0.02 0.02 0.04 0.02 0.01 0.01 0.02 0.02 0.01 0.01 0.01 0.03 0.03 0.04 0.05 0.04 0.04 0.06 0.06 0.09 0.13 0.14 0.12 0.14 0.13 0.11 0.08 0.08 0.10 0.12 0.12 0.09 0.05 0.06 0.05 0.03
0.03 0.06 0.02 0.00 0.01 0.00 0.00 0.00 0.00 0.02 0.02 0.03 0.04 0.04 0.03 0.03 0.02 0.01 0.00 0.01 0.01 0.01 0.01 0.02 0.03 0.03 0.05 0.09 0.05 0.06 0.06 0.10 0.12 0.09 0.12 0.14 0.13 0.14 0.08 0.10 0.12 0.14 0.13 0.10 0.07 0.04 0.08 0.08 0.06
0.01 0.01 0.01 0.00 0.00 0.00 0.00 0.00 0.00 0.02 0.02 0.03 0.06 0.06 0.03 0.02 0.01 0.00 0.00 0.01 0.01 0.01 0.01 0.01 0.02 0.02 0.08 0.13 0.07 0.06 0.06 0.08 0.10 0.05 0.05 0.10 0.12 0.11 0.12 0.16 0.18 0.14 0.11 0.10 0.07 0.06 0.10 0.10 0.08
0.00 0.01 0.00 0.00 0.00 0.00 0.00 0.00 0.00 0.02 0.02 0.01 0.01 0.01 0.01 0.01 0.00 0.00 0.00 0.01 0.02 0.01 0.01 0.01 0.01 0.02 0.08 0.10 0.08 0.06 0.04 0.04 0.05 0.04 0.03 0.05 0.12 0.18 0.18 0.16 0.14 0.10 0.08 0.11 0.10 0.11 0.12 0.10 0.07
0.00 0.00 0.00 0.00 0.00 0.00 0.00 0.00 0.01 0.02 0.01 0.00 0.00 0.00 0.00 0.00 0.00 0.00 0.00 0.00 0.01 0.01 0.01 0.01 0.01 0.01 0.03 0.07 0.08 0.04 0.04 0.04 0.03 0.04 0.04 0.06 0.13 0.16 0.11 0.09 0.08 0.06 0.06 0.08 0.10 0.10 0.09 0.09 0.07
0.00 0.00 0.00 0.00 0.00 0.00 0.01 0.01 0.01 0.02 0.01 0.00 0.00 0.00 0.00 0.00 0.00 0.00 0.00 0.00 0.01 0.01 0.02 0.01 0.01 0.01 0.01 0.04 0.06 0.05 0.05 0.06 0.04 0.03 0.04 0.07 0.09 0.09 0.07 0.06 0.07 0.06 0.07 0.08 0.10 0.09 0.08 0.07 0.07
0.00 0.00 0.00 0.00 0.00 0.00 0.01 0.02 0.02 0.01 0.01 0.00 0.00 0.00 0.00 0.00 0.00 0.00 0.00 0.00 0.00 0.01 0.01 0.01 0.01 0.01 0.01 0.01 0.02 0.03 0.04 0.04 0.04 0.04 0.04 0.05 0.05 0.05 0.05 0.05 0.06 0.06 0.07 0.11 0.12 0.10 0.08 0.06 0.05
0.00 0.01 0.00 0.00 0.00 0.00 0.01 0.02 0.02 0.01 0.01 0.01 0.00 0.00 0.00 0.00 0.00 0.00 0.00 0.01 0.01 0.01 0.01 0.01 0.01 0.01 0.01 0.01 0.01 0.02 0.02 0.02 0.03 0.04 0.03 0.03 0.03 0.03 0.05 0.05 0.06 0.08 0.10 0.13 0.10 0.09 0.07 0.06 0.06
0.00 0.01 0.00 0.00 0.00 0.00 0.01 0.02 0.02 0.01 0.02 0.02 0.00 0.00 0.00 0.00 0.00 0.00 0.00 0.00 0.00 0.01 0.01 0.01 0.02 0.01 0.01 0.01 0.01 0.02 0.03 0.03 0.03 0.04 0.04 0.03 0.03 0.03 0.05 0.07 0.08 0.09 0.09 0.11 0.08 0.08 0.07 0.06 0.07
0.01 0.01 0.00 0.00 0.00 0.01 0.01 0.02 0.01 0.01 0.01 0.02 0.01 0.00 0.00 0.00 0.00 0.00 0.00 0.00 0.00 0.00 0.00 0.01 0.02 0.02 0.03 0.02 0.01 0.02 0.03 0.04 0.04 0.04 0.05 0.04 0.04 0.04 0.05 0.06 0.08 0.09 0.09 0.10 0.09 0.09 0.07 0.06 0.05
0.00 0.00 0.00 0.00 0.00 0.01 0.03 0.03 0.02 0.02 0.01 0.01 0.02 0.01 0.00 0.00 0.00 0.00 0.00 0.00 0.00 0.00 0.00 0.00 0.01 0.02 0.03 0.03 0.03 0.03 0.04 0.04 0.04 0.05 0.05 0.05 0.04 0.04 0.05 0.06 0.09 0.10 0.10 0.10 0.09 0.09 0.09 0.06 0.04
0.00 0.00 0.00 0.00 0.00 0.01 0.03 0.04 0.02 0.02 0.01 0.00 0.01 0.00 0.00 0.00 0.00 0.00 0.00 0.00 0.00 0.00 0.00 0.00 0.00 0.02 0.02 0.03 0.04 0.04 0.04 0.03 0.03 0.03 0.06 0.06 0.05 0.06 0.06 0.09 0.11 0.12 0.11 0.11 0.09 0.08 0.07 0.05 0.04
0.00 0.00 0.00 0.00 0.00 0.00 0.01 0.04 0.03 0.01 0.00 0.00 0.00 0.00 0.00 0.00 0.00 0.00 0.00 0.00 0.00 0.00 0.00 0.00 0.01 0.02 0.03 0.04 0.04 0.05 0.05 0.04 0.03 0.03 0.04 0.06 0.07 0.07 0.09 0.11 0.13 0.15 0.12 0.11 0.09 0.08 0.07 0.06 0.05
0.00 0.00 0.00 0.00 0.00 0.00 0.00 0.02 0.04 0.03 0.02 0.01 0.00 0.00 0.00 0.00 0.00 0.00 0.00 0.00 0.01 0.01 0.00 0.01 0.03 0.03 0.03 0.03 0.04 0.06 0.05 0.04 0.04 0.04 0.03 0.05 0.07 0.10 0.12 0.12 0.13 0.14 0.14 0.11 0.08 0.07 0.07 0.07 0.07
0.00 0.00 0.00 0.00 0.00 0.00 0.00 0.00 0.02 0.03 0.03 0.01 0.01 0.01 0.01 0.00 0.00 0.00 0.00 0.00 0.01 0.01 0.01 0.02 0.03 0.03 0.04 0.04 0.04 0.04 0.04 0.05 0.04 0.05 0.06 0.06 0.07 0.09 0.11 0.11 0.11 0.10 0.12 0.10 0.09 0.09 0.05 0.05 0.05
0.00 0.00 0.00 0.00 0.00 0.01 0.00 0.00 0.01 0.01 0.03 0.01 0.01 0.01 0.01 0.01 0.01 0.01 0.01 0.02 0.02 0.01 0.01 0.01 0.01 0.01 0.02 0.02 0.01 0.01 0.03 0.05 0.05 0.07 0.07 0.06 0.06 0.06 0.07 0.07 0.06 0.06 0.07 0.08 0.09 0.08 0.06 0.05 0.05
0.00 0.00 0.01 0.02 0.02 0.01 0.01 0.00 0.01 0.01 0.01 0.01 0.00 0.00 0.01 0.02 0.03 0.02 0.02 0.02 0.02 0.00 0.00 0.01 0.01 0.01 0.01 0.01 0.02 0.02 0.03 0.04 0.05 0.05 0.06 0.06 0.05 0.06 0.06 0.06 0.05 0.05 0.06 0.06 0.07 0.08 0.06 0.04 0.04
0.00 0.00 0.01 0.03 0.03 0.02 0.01 0.01 0.01 0.00 0.00 0.00 0.00 0.00 0.00 0.01 0.02 0.03 0.02 0.02 0.02 0.01 0.00 0.00 0.02 0.02 0.03 0.04 0.04 0.05 0.04 0.04 0.04 0.05 0.06 0.05 0.04 0.03 0.04 0.04 0.04 0.05 0.05 0.05 0.06 0.05 0.04 0.05 0.05
0.00 0.00 0.00 0.01 0.02 0.03 0.03 0.01 0.01 0.01 0.01 0.00 0.00 0.00 0.00 0.00 0.01 0.02 0.02 0.05 0.08 0.05 0.02 0.01 0.02 0.03 0.03 0.04 0.05 0.07 0.07 0.07 0.06 0.05 0.05 0.05 0.04 0.03 0.05 0.03 0.04 0.04 0.05 0.05 0.05 0.04 0.04 0.05 0.05
0.00 0.00 0.00 0.00 0.01 0.01 0.02 0.02 0.01 0.02 0.02 0.01 0.01 0.00 0.00 0.00 0.00 0.01 0.01 0.04 0.08 0.07 0.07 0.07 0.06 0.06 0.03 0.03 0.04 0.06 0.07 0.06 0.05 0.05 0.05 0.05 0.06 0.04 0.03 0.04 0.04 0.04 0.05 0.07 0.07 0.06 0.06 0.06 0.05
0.00 0.00 0.00 0.00 0.00 0.01 0.01 0.01 0.01 0.02 0.02 0.03 0.04 0.02 0.00 0.00 0.00 0.00 0.00 0.00 0.02 0.02 0.03 0.05 0.07 0.06 0.02 0.02 0.03 0.03 0.03 0.04 0.04 0.03 0.05 0.05 0.04 0.04 0.03 0.02 0.03 0.03 0.04 0.06 0.06 0.06 0.06 0.06 0.05
0.00 0.00 0.00 0.01 0.01 0.02 0.02 0.02 0.03 0.04 0.04 0.03 0.03 0.02 0.01 0.01 0.01 0.01 0.00 0.00 0.00 0.01 0.02 0.02 0.01 0.01 0.01 0.01 0.02 0.02 0.02 0.03 0.02 0.03 0.04 0.03 0.04 0.04 0.03 0.03 0.03 0.03 0.03 0.03 0.04 0.04 0.05 0.05 0.04
MSLP
1005.60 1006.30 1007.11 1007.93 1008.62 1009.11 1009.36 1009.38 1009.25 1009.06 1008.91 1008.89 1009.05 1009.38 1009.82 1010.31 1010.76 1011.09 1011.29 1011.37 1011.35 1011.32 1011.32 1011.40 1011.59 1011.84 1012.13 1012.39 1012.59 1012.71 1012.75 1012.76 1012.77 1012.84 1012.99 1013.21 1013.48 1013.77 1014.02 1014.20 1014.30 1014.31 1014.27 1014.20 1014.13 1014.10 1014.08 1014.08 1014.06
1005.59 1006.36 1007.17 1007.92 1008.50 1008.84 1008.94 1008.85 1008.65 1008.45 1008.34 1008.40 1008.64 1009.03 1009.52 1010.02 1010.45 1010.77 1010.96 1011.05 1011.09 1011.15 1011.28 1011.51 1011.83 1012.19 1012.54 1012.84 1013.03 1013.12 1013.13 1013.10 1013.08 1013.13 1013.25 1013.44 1013.68 1013.92 1014.12 1014.24 1014.28 1014.25 1014.19 1014.11 1014.05 1014.02 1014.00 1013.99 1013.95
1005.55 1006.35 1007.13 1007.79 1008.23 1008.43 1008.40 1008.21 1007.98 1007.81 1007.78 1007.95 1008.30 1008.80 1009.34 1009.86 1010.27 1010.55 1010.70 1010.78 1010.85 1010.97 1011.19 1011.52 1011.95 1012.40 1012.82 1013.16 1013.37 1013.46 1013.46 1013.41 1013.38 1013.40 1013.50 1013.65 1013.83 1014.00 1014.12 1014.17 1014.15 1014.08 1014.00 1013.92 1013.88 1013.87 1013.88 1013.87 1013.82
1005.45 1006.25 1006.98 1007.54 1007.85 1007.92 1007.79 1007.56 1007.34 1007.24 1007.33 1007.64 1008.13 1008.73 1009.34 1009.86 1010.25 1010.47 1010.57 1010.60 1010.65 1010.79 1011.06 1011.46 1011.96 1012.48 1012.96 1013.33 1013.58 1013.68 1013.70 1013.66 1013.63 1013.64 1013.71 1013.82 1013.94 1014.03 1014.07 1014.04 1013.97 1013.86 1013.77 1013.71 1013.69 1013.71 1013.74 1013.75 1013.70
1005.26 1006.04 1006.71 1007.18 1007.40 1007.39 1007.21 1006.98 1006.82 1006.82 1007.06 1007.51 1008.14 1008.84 1009.50 1010.03 1010.38 1010.54 1010.57 1010.54 1010.55 1010.67 1010.94 1011.37 1011.89 1012.45 1012.96 1013.37 1013.64 1013.78 1013.82 1013.81 1013.80 1013.82 1013.88 1013.95 1014.01 1014.04 1014.00 1013.91 1013.78 1013.65 1013.55 1013.50 1013.52 1013.57 1013.63 1013.66 1013.63
1004.96 1005.71 1006.34 1006.74 1006.91 1006.87 1006.71 1006.53 1006.46 1006.60 1006.98 1007.58 1008.32 1009.09 1009.79 1010.31 1010.62 1010.71 1010.67 1010.57 1010.53 1010.62 1010.87 1011.28 1011.80 1012.36 1012.87 1013.28 1013.57 1013.73 1013.81 1013.84 1013.86 1013.91 1013.96 1014.02 1014.04 1014.01 1013.92 1013.77 1013.60 1013.45 1013.35 1013.33 1013.37 1013.45 1013.54 1013.60 1013.59
1004.55 1005.27 1005.86 1006.24 1006.41 1006.39 1006.29 1006.21 1006.27 1006.54 1007.06 1007.77 1008.59 1009.41 1010.11 1010.61 1010.87 1010.91 1010.81 1010.66 1010.58 1010.63 1010.85 1011.23 1011.73 1012.25 1012.73 1013.12 1013.40 1013.57 1013.67 1013.73 1013.79 1013.86 1013.94 1013.99 1014.00 1013.94 1013.80 1013.62 1013.43 1013.27 1013.17 1013.16 1013.23 1013.34 1013.46 1013.55 1013.58
1004.08 1004.76 1005.32 1005.70 1005.90 1005.95 1005.95 1006.00 1006.19 1006.59 1007.21 1008.00 1008.86 1009.69 1010.37 1010.83 1011.04 1011.04 1010.90 1010.74 1010.63 1010.67 1010.87 1011.22 1011.67 1012.15 1012.58 1012.93 1013.17 1013.33 1013.43 1013.51 1013.59 1013.69 1013.78 1013.85 1013.85 1013.78 1013.63 1013.44 1013.24 1013.07 1012.99 1012.99 1013.08 1013.23 1013.38 1013.51 1013.59
1003.59 1004.22 1004.76 1005.16 1005.41 1005.56 1005.67 1005.85 1006.16 1006.67 1007.36 1008.18 1009.04 1009.83 1010.47 1010.88 1011.05 1011.02 1010.88 1010.72 1010.63 1010.68 1010.88 1011.21 1011.63 1012.05 1012.43 1012.72 1012.91 1013.04 1013.12 1013.19 1013.29 1013.40 1013.51 1013.58 1013.60 1013.53 1013.39 1013.20 1013.00 1012.85 1012.78 1012.81 1012.93 1013.10 1013.29 1013.46 1013.60
1003.16 1003.74 1004.25 1004.67 1004.98 1005.21 1005.44 1005.73 1006.15 1006.72 1007.44 1008.25 1009.07 1009.80 1010.36 1010.71 1010.84 1010.81 1010.68 1010.56 1010.51 1010.60 1010.83 1011.17 1011.56 1011.95 1012.27 1012.51 1012.65 1012.72 1012.77 1012.82 1012.91 1013.02 1013.13 1013.22 1013.25 1013.20 1013.07 1012.90 1012.73 1012.61 1012.57 1012.63 1012.78 1012.99 1013.22 1013.44 1013.63
1002.87 1003.39 1003.87 1004.29 1004.64 1004.94 1005.26 1005.64 1006.12 1006.73 1007.44 1008.21 1008.95 1009.59 1010.07 1010.36 1010.45 1010.41 1010.31 1010.23 1010.25 1010.39 1010.67 1011.03 1011.43 1011.80 1012.10 1012.29 1012.39 1012.42 1012.42 1012.45 1012.50 1012.60 1012.71 1012.80 1012.84 1012.81 1012.72 1012.59 1012.46 1012.38 1012.38 1012.48 1012.67 1012.92 1013.20 1013.47 1013.72
1002.80 1003.25 1003.69 1004.08 1004.44 1004.78 1005.15 1005.57 1006.09 1006.70 1007.37 1008.07 1008.73 1009.27 1009.66 1009.87 1009.92 1009.88 1009.80 1009.77 1009.84 1010.05 1010.38 1010.79 1011.21 1011.60 1011.89 1012.06 1012.14 1012.14 1012.11 1012.10 1012.12 1012.19 1012.29 1012.38 1012.43 1012.43 1012.38 1012.30 1012.22 1012.20 1012.25 1012.40 1012.64 1012.94 1013.27 1013.59 1013.89
1002.97 1003.35 1003.72 1004.07 1004.41 1004.76 1005.13 1005.57 1006.08 1006.66 1007.29 1007.91 1008.47 1008.92 1009.22 1009.37 1009.38 1009.31 1009.24 1009.24 1009.36 1009.61 1009.98 1010.44 1010.91 1011.32 1011.63 1011.82 1011.90 1011.89 1011.85 1011.81 1011.80 1011.84 1011.92 1012.00 1012.07 1012.10 1012.10 1012.07 1012.06 1012.10 1012.22 1012.43 1012.72 1013.07 1013.45 1013.82 1014.17
1003.37 1003.68 1003.97 1004.26 1004.55 1004.87 1005.22 1005.64 1006.12 1006.66 1007.23 1007.78 1008.26 1008.63 1008.85 1008.94 1008.91 1008.82 1008.74 1008.74 1008.87 1009.14 1009.54 1010.03 1010.53 1010.99 1011.35 1011.58 1011.69 1011.69 1011.65 1011.59 1011.56 1011.58 1011.63 1011.70 1011.78 1011.85 1011.90 1011.95 1012.01 1012.12 1012.31 1012.58 1012.92 1013.32 1013.74 1014.16 1014.54
1003.91 1004.14 1004.36 1004.58 1004.82 1005.08 1005.39 1005.77 1006.20 1006.68 1007.19 1007.68 1008.10 1008.42 1008.60 1008.65 1008.59 1008.48 1008.38 1008.36 1008.47 1008.73 1009.13 1009.62 1010.16 1010.66 1011.07 1011.35 1011.50 1011.54 1011.51 1011.44 1011.39 1011.38 1011.41 1011.48 1011.58 1011.68 1011.79 1011.91 1012.05 1012.24 1012.49 1012.82 1013.21 1013.65 1014.11 1014.55 1014.95
1004.48 1004.65 1004.80 1004.95 1005.13 1005.34 1005.59 1005.90 1006.28 1006.70 1007.15 1007.58 1007.97 1008.26 1008.42 1008.47 1008.40 1008.28 1008.17 1008.12 1008.20 1008.42 1008.80 1009.29 1009.83 1010.36 1010.81 1011.15 1011.35 1011.42 1011.41 1011.34 1011.27 1011.24 1011.25 1011.31 1011.42 1011.56 1011.73 1011.92 1012.14 1012.41 1012.72 1013.10 1013.53 1014.00 1014.48 1014.94 1015.36
1004.95 1005.07 1005.17 1005.28 1005.41 1005.56 1005.75 1005.99 1006.29 1006.64 1007.02 1007.41 1007.77 1008.05 1008.24 1008.31 1008.27 1008.17 1008.06 1008.00 1008.05 1008.24 1008.58 1009.04 1009.57 1010.11 1010.60 1010.98 1011.22 1011.33 1011.33 1011.26 1011.17 1011.10 1011.09 1011.15 1011.27 1011.45 1011.67 1011.94 1012.24 1012.57 1012.94 1013.36 1013.81 1014.30 1014.79 1015.26 1015.69
1005.22 1005.31 1005.40 1005.49 1005.59 1005.70 1005.83 1005.98 1006.18 1006.43 1006.72 1007.05 1007.38 1007.68 1007.91 1008.04 1008.07 1008.03 1007.96 1007.92 1007.96 1008.12 1008.43 1008.86 1009.38 1009.92 1010.42 1010.83 1011.10 1011.23 1011.24 1011.16 1011.04 1010.95 1010.91 1010.96 1011.09 1011.30 1011.59 1011.92 1012.28 1012.68 1013.10 1013.54 1014.01 1014.50 1014.99 1015.46 1015.90
1005.26 1005.36 1005.47 1005.58 1005.67 1005.75 1005.80 1005.85 1005.91 1006.03 1006.20 1006.44 1006.73 1007.03 1007.30 1007.51 1007.65 1007.71 1007.73 1007.74 1007.82 1007.99 1008.28 1008.69 1009.19 1009.73 1010.24 1010.66 1010.95 1011.10 1011.10 1011.01 1010.87 1010.75 1010.69 1010.72 1010.86 1011.10 1011.43 1011.83 1012.26 1012.70 1013.16 1013.62 1014.09 1014.57 1015.04 1015.51 1015.96
1005.11 1005.25 1005.41 1005.57 1005.69 1005.74 1005.71 1005.63 1005.53 1005.46 1005.46 1005.56 1005.76 1006.03 1006.34 1006.64 1006.89 1007.08 1007.23 1007.35 1007.49 1007.70 1008.01 1008.43 1008.93 1009.47 1009.99 1010.43 1010.74 1010.89 1010.90 1010.80 1010.64 1010.50 1010.41 1010.43 1010.58 1010.85 1011.22 1011.66 1012.14 1012.63 1013.12 1013.59 1014.05 1014.50 1014.96 1015.42 1015.87
1004.85 1005.07 1005.34 1005.58 1005.74 1005.76 1005.65 1005.41 1005.10 1004.80 1004.58 1004.48 1004.54 1004.74 1005.04 1005.40 1005.76 1006.09 1006.38 1006.63 1006.88 1007.17 1007.53 1007.97 1008.50 1009.06 1009.60 1010.06 1010.40 1010.58 1010.61 1010.51 1010.35 1010.19 1010.09 1010.11 1010.26 1010.55 1010.95 1011.43 1011.96 1012.48 1012.98 1013.45 1013.90 1014.33 1014.76 1015.19 1015.64
1004.61 1004.96 1005.35 1005.70 1005.92 1005.93 1005.72 1005.31 1004.77 1004.20 1003.70 1003.35 1003.20 1003.27 1003.52 1003.89 1004.33 1004.77 1005.19 1005.57 1005.93 1006.32 1006.75 1007.25 1007.81 1008.41 1008.99 1009.50 1009.89 1010.12 1010.20 1010.14 1010.00 1009.85 1009.75 1009.76 1009.92 1010.22 1010.64 1011.16 1011.71 1012.26 1012.77 1013.24 1013.67 1014.06 1014.46 1014.87 1015.29
1004.49 1004.99 1005.54 1006.01 1006.29 1006.30 1006.00 1005.41 1004.63 1003.78 1002.97 1002.34 1001.95 1001.83 1001.96 1002.29 1002.75 1003.25 1003.76 1004.24 1004.71 1005.17 1005.67 1006.23 1006.85 1007.50 1008.14 1008.73 1009.19 1009.51 1009.66 1009.66 1009.57 1009.45 1009.38 1009.40 1009.57 1009.87 1010.31 1010.84 1011.41 1011.98 1012.50 1012.96 1013.37 1013.74 1014.10 1014.47 1014.87
1004.52 1005.19 1005.90 1006.50 1006.86 1006.87 1006.49 1005.76 1004.76 1003.63 1002.54 1001.61 1000.96 1000.62 1000.58 1000.81 1001.22 1001.72 1002.26 1002.78 1003.30 1003.82 1004.37 1004.97 1005.64 1006.35 1007.07 1007.74 1008.30 1008.72 1008.97 1009.07 1009.06 1009.00 1008.97 1009.01 1009.18 1009.50 1009.94 1010.48 1011.06 1011.64 1012.17 1012.63 1013.03 1013.37 1013.70 1014.03 1014.40
1004.67 1005.50 1006.37 1007.09 1007.52 1007.55 1007.13 1006.28 1005.11 1003.77 1002.43 1001.25 1000.35 999.78 999.56 999.63 999.93 1000.36 1000.86 1001.36 1001.87 1002.39 1002.95 1003.57 1004.26 1005.02 1005.81 1006.57 1007.24 1007.78 1008.15 1008.37 1008.45 1008.47 1008.49 1008.56 1008.75 1009.07 1009.51 1010.06 1010.65 1011.23 1011.78 1012.25 1012.64 1012.98 1013.28 1013.57 1013.90
1004.83 1005.81 1006.79 1007.62 1008.12 1008.17 1007.74 1006.84 1005.58 1004.11 1002.61 1001.25 1000.15 999.39 998.98 998.88 999.03 999.33 999.72 1000.14 1000.57 1001.03 1001.55 1002.15 1002.84 1003.62 1004.46 1005.29 1006.06 1006.70 1007.20 1007.53 1007.72 1007.83 1007.90 1008.02 1008.23 1008.55 1009.00 1009.55 1010.15 1010.76 1011.33 1011.82 1012.23 1012.57 1012.85 1013.12 1013.41
1004.90 1005.96 1007.02 1007.90 1008.44 1008.53 1008.12 1007.24 1005.98 1004.48 1002.93 1001.48 1000.28 999.39 998.83 998.57 998.55 998.70 998.93 999.22 999.53 999.89 1000.32 1000.85 1001.50 1002.27 1003.11 1003.98 1004.82 1005.55 1006.15 1006.58 1006.87 1007.06 1007.20 1007.36 1007.60 1007.94 1008.40 1008.97 1009.60 1010.23 1010.84 1011.37 1011.82 1012.17 1012.47 1012.72 1012.98
1004.76 1005.84 1006.90 1007.79 1008.34 1008.46 1008.10 1007.29 1006.10 1004.68 1003.19 1001.79 1000.58 999.64 999.00 998.62 998.46 998.45 998.52 998.65 998.81 999.04 999.35 999.77 1000.35 1001.06 1001.87 1002.74 1003.60 1004.38 1005.04 1005.55 1005.92 1006.18 1006.38 1006.60 1006.87 1007.25 1007.74 1008.34 1009.00 1009.68 1010.34 1010.93 1011.42 1011.82 1012.14 1012.40 1012.63
1004.40 1005.41 1006.39 1007.20 1007.72 1007.84 1007.54 1006.84 1005.81 1004.56 1003.23 1001.96 1000.86 999.97 999.32 998.89 998.64 998.50 998.44 998.41 998.43 998.51 998.69 999.00 999.47 1000.09 1000.83 1001.65 1002.48 1003.26 1003.94 1004.49 1004.91 1005.23 1005.49 1005.76 1006.09 1006.52 1007.05 1007.70 1008.41 1009.16 1009.88 1010.53 1011.09 1011.55 1011.90 1012.17 1012.40
1003.88 1004.74 1005.56 1006.23 1006.64 1006.74 1006.48 1005.90 1005.05 1004.03 1002.94 1001.89 1000.97 1000.21 999.63 999.22 998.93 998.72 998.55 998.42 998.32 998.28 998.34 998.54 998.89 999.40 1000.04 1000.77 1001.54 1002.27 1002.93 1003.48 1003.92 1004.29 1004.61 1004.94 1005.33 1005.82 1006.41 1007.12 1007.90 1008.71 1009.49 1010.22 1010.84 1011.35 1011.74 1012.03 1012.26
Thickness
5834 5835 5834 5824 5804 5794 5799 5814 5823 5821 5822 5830 5832 5825 5812 5804 5793 5779 5803 5812 5809 5803 5798 5794 5792 5791 5789 5788 5786 5785 5784 5783 5782 5781 5780 5779 5778 5777 5776 5774 5773 5772 5771 5770 5769 5769 5768 5767 5766
5842 5842 5832 5817 5797 5791 5800 5819 5819 5822 5830 5835 5833 5826 5814 5806 5810 5805 5807 5811 5810 5805 5799 5795 5791 5790 5789 5787 5786 5784 5783 5782 5781 5781 5780 5779 5777 5777 5776 5774 5773 5772 5771 5770 5769 5768 5768 5767 5766
5845 5845 5825 5815 5808 5804 5806 5823 5826 5834 5841 5836 5827 5824 5813 5805 5811 5809 5811 5814 5810 5805 5799 5794 5791 5789 5788 5787 5785 5784 5783 5782 5781 5781 5780 5779 5778 5777 5776 5774 5773 5772 5771 5770 5769 5768 5767 5767 5766
5845 5838 5828 5816 5814 5825 5828 5833 5838 5835 5838 5839 5830 5814 5813 5819 5817 5815 5817 5816 5810 5805 5800 5794 5791 5789 5788 5786 5785 5784 5782 5782 5781 5780 5780 5779 5778 5777 5775 5774 5773 5772 5771 5770 5769 5768 5767 5767 5766
5847 5830 5816 5816 5822 5834 5844 5848 5846 5835 5832 5833 5825 5807 5804 5819 5824 5821 5819 5817 5810 5805 5800 5794 5791 5789 5788 5786 5785 5784 5782 5781 5781 5780 5780 5779 5778 5776 5775 5774 5772 5771 5771 5770 5769 5768 5767 5767 5767
5832 5828 5813 5813 5824 5837 5847 5853 5848 5837 5833 5832 5823 5808 5804 5820 5820 5820 5820 5817 5813 5807 5801 5795 5791 5790 5788 5787 5785 5783 5782 5782 5781 5780 5780 5779 5777 5776 5775 5773 5772 5771 5771 5770 5769 5768 5767 5767 5767
5827 5822 5819 5824 5826 5831 5845 5856 5846 5838 5833 5833 5832 5811 5807 5816 5821 5823 5821 5818 5814 5809 5804 5798 5794 5791 5789 5787 5786 5784 5783 5782 5781 5781 5780 5779 5777 5776 5775 5773 5772 5771 5771 5770 5769 5769 5768 5768 5768
5852 5833 5827 5831 5826 5828 5849 5854 5852 5843 5835 5846 5842 5816 5806 5816 5826 5825 5821 5817 5814 5810 5806 5803 5799 5795 5792 5789 5787 5785 5784 5783 5782 5781 5780 5779 5777 5776 5775 5774 5773 5772 5771 5771 5770 5769 5769 5768 5768
5867 5833 5825 5833 5833 5837 5852 5849 5851 5855 5844 5843 5844 5834 5826 5829 5828 5821 5815 5812 5810 5809 5808 5806 5803 5799 5796 5793 5790 5787 5786 5784 5783 5782 5780 5779 5778 5777 5776 5775 5773 5773 5772 5771 5771 5770 5769 5769 5769
5858 5829 5836 5854 5856 5852 5852 5850 5850 5845 5835 5832 5831 5832 5832 5829 5824 5817 5811 5808 5807 5807 5808 5808 5805 5802 5799 5798 5793 5791 5789 5785 5784 5783 5782 5781 5780 5779 5778 5776 5775 5774 5773 5772 5771 5771 5770 5770 5770
5862 5844 5856 5864 5869 5866 5857 5854 5857 5843 5829 5831 5826 5826 5829 5826 5823 5819 5815 5812 5811 5810 5810 5809 5807 5804 5801 5799 5796 5794 5792 5788 5786 5784 5783 5782 5782 5780 5779 5777 5775 5775 5774 5773 5773 5772 5772 5772 5772
5864 5864 5870 5871 5874 5868 5862 5859 5854 5847 5842 5848 5842 5837 5832 5827 5824 5822 5819 5816 5815 5813 5811 5810 5808 5804 5801 5800 5798 5796 5794 5791 5788 5786 5786 5784 5783 5782 5781 5780 5778 5777 5777 5776 5775 5774 5774 5774 5773
5863 5865 5874 5877 5876 5872 5867 5859 5853 5849 5855 5855 5849 5842 5835 5832 5829 5828 5827 5823 5819 5814 5811 5810 5807 5803 5801 5799 5798 5798 5795 5793 5791 5789 5787 5786 5784 5783 5783 5781 5780 5780 5779 5778 5776 5775 5775 5773 5773
5869 5872 5873 5876 5874 5874 5863 5858 5853 5849 5858 5852 5846 5840 5839 5836 5833 5829 5826 5822 5819 5816 5813 5811 5808 5804 5801 5799 5798 5798 5797 5794 5792 5790 5788 5786 5785 5784 5783 5781 5781 5780 5780 5779 5777 5776 5774 5773 5772
5878 5864 5864 5872 5875 5873 5863 5844 5847 5855 5856 5849 5845 5843 5841 5839 5837 5831 5829 5825 5822 5818 5816 5812 5809 5806 5802 5800 5799 5799 5797 5796 5793 5791 5789 5787 5786 5784 5783 5782 5781 5780 5780 5779 5778 5776 5775 5773 5772
5865 5851 5843 5865 5875 5875 5855 5827 5851 5863 5855 5845 5845 5843 5840 5839 5839 5837 5834 5829 5826 5821 5816 5814 5813 5807 5803 5801 5800 5800 5798 5796 5794 5791 5789 5787 5786 5785 5783 5782 5781 5780 5780 5780 5778 5776 5774 5772 5771
5848 5838 5840 5856 5875 5873 5857 5837 5855 5865 5856 5845 5844 5844 5841 5839 5839 5839 5837 5832 5828 5823 5818 5814 5812 5808 5804 5802 5800 5799 5798 5796 5794 5792 5790 5788 5787 5785 5784 5782 5781 5781 5780 5779 5779 5776 5774 5771 5770
5832 5840 5846 5851 5866 5868 5856 5849 5857 5865 5859 5850 5847 5846 5843 5840 5840 5841 5839 5836 5830 5824 5819 5815 5811 5808 5805 5803 5800 5798 5797 5795 5794 5792 5790 5788 5787 5786 5784 5783 5782 5781 5779 5777 5776 5774 5774 5772 5771
5851 5845 5843 5854 5872 5864 5854 5851 5855 5863 5859 5852 5847 5847 5845 5843 5847 5845 5841 5837 5831 5825 5819 5814 5810 5807 5805 5801 5797 5793 5792 5793 5792 5792 5790 5789 5787 5786 5784 5783 5781 5780 5778 5775 5774 5773 5771 5770 5771
5850 5843 5844 5856 5871 5863 5854 5852 5861 5863 5861 5858 5853 5850 5850 5847 5845 5842 5840 5837 5832 5825 5820 5815 5811 5808 5805 5802 5799 5796 5794 5793 5792 5791 5789 5788 5787 5785 5785 5782 5780 5778 5776 5774 5773 5771 5768 5769 5770
5844 5845 5845 5847 5859 5864 5852 5839 5848 5859 5866 5864 5861 5860 5857 5852 5845 5842 5840 5837 5833 5827 5822 5818 5813 5809 5806 5804 5800 5798 5794 5792 5790 5788 5787 5787 5785 5784 5783 5781 5779 5777 5775 5772 5771 5770 5768 5765 5767
5838 5858 5856 5852 5844 5839 5845 5818 5834 5848 5851 5855 5857 5859 5859 5858 5852 5846 5842 5838 5835 5831 5826 5822 5816 5811 5807 5804 5800 5794 5789 5786 5787 5787 5786 5785 5784 5783 5781 5779 5778 5776 5774 5772 5771 5770 5769 5766 5762
5850 5863 5857 5851 5842 5833 5843 5829 5830 5846 5837 5848 5856 5858 5859 5861 5856 5850 5846 5842 5839 5836 5830 5824 5818 5812 5808 5805 5801 5796 5792 5790 5789 5788 5784 5783 5782 5782 5780 5778 5776 5775 5773 5771 5770 5769 5767 5766 5763
5861 5855 5850 5846 5834 5809 5829 5828 5822 5839 5841 5848 5856 5857 5858 5861 5858 5853 5849 5845 5840 5837 5832 5826 5817 5812 5809 5805 5801 5797 5793 5789 5786 5783 5781 5780 5780 5780 5779 5777 5775 5773 5772 5770 5768 5767 5765 5764 5763
5853 5832 5808 5801 5798 5804 5834 5828 5830 5854 5863 5861 5858 5860 5863 5863 5858 5852 5846 5840 5838 5836 5832 5826 5818 5811 5808 5805 5801 5798 5794 5791 5786 5783 5781 5779 5778 5777 5776 5776 5773 5771 5770 5768 5767 5765 5763 5762 5760
5843 5835 5803 5786 5791 5808 5822 5816 5837 5865 5870 5871 5870 5868 5865 5861 5858 5853 5847 5842 5839 5836 5832 5826 5819 5812 5809 5805 5801 5798 5795 5792 5789 5785 5783 5780 5779 5778 5776 5774 5772 5770 5768 5767 5765 5763 5761 5760 5758
5834 5834 5843 5822 5813 5803 5814 5829 5840 5855 5857 5861 5865 5863 5858 5858 5857 5852 5847 5842 5837 5833 5830 5826 5819 5813 5809 5806 5802 5798 5795 5792 5789 5786 5784 5781 5780 5778 5776 5773 5770 5768 5766 5764 5762 5760 5758 5757 5756
5849 5844 5834 5817 5793 5787 5804 5817 5817 5829 5833 5842 5848 5853 5856 5856 5854 5851 5847 5843 5838 5832 5829 5827 5820 5813 5810 5807 5803 5799 5795 5792 5789 5786 5782 5780 5779 5777 5774 5771 5768 5765 5763 5761 5759 5757 5756 5754 5753
5835 5832 5828 5823 5816 5793 5784 5805 5839 5835 5836 5837 5840 5848 5849 5850 5850 5848 5846 5843 5839 5835 5831 5825 5819 5814 5809 5807 5803 5799 5795 5792 5789 5785 5782 5780 5778 5775 5772 5769 5766 5763 5761 5759 5756 5754 5753 5751 5749
5844 5836 5828 5806 5800 5805 5796 5805 5854 5847 5845 5843 5842 5843 5844 5846 5846 5846 5843 5840 5836 5832 5828 5822 5818 5813 5810 5807 5803 5799 5795 5791 5787 5783 5781 5778 5775 5772 5769 5767 5763 5761 5758 5756 5753 5751 5750 5748 5746